Weather in Mokraya Kitsa

Russia / Murmansk Oblast     68°38′08″N   33°17′52″E
temp.,
°C
wind,
m/s
gust,
m/s
humid.,
%
clouds,
%
prec.,
mm/h
press.,
hPa
HPBL,
m
9 december, thu
thu900:00−23s1110075 0.0 102510
03:00−23s1110077 0.0 102413
06:00−22s1110061 0.0 102412
09:00−22ssw1110070 0.0 102313
12:00−21sse2110068 0.0 102332
15:00−19sse219981 0.0 102231
18:00−20s22985 0.0 102237
21:00−18s249129 0.0 102250
10 december, fri
fri1000:00−16s3592100 0.0 102174
03:00−13ssw31094100 0.0 1020260
06:00−13s389776 0.1 1020179
09:00−11s379597 0.1 1019195
12:00−14s3696100 0.0 102092
15:00−12s3793100 0.0 1020140
18:00−9s31086100 0.0 1020275
21:00−9s31082100 0.0 1020256
11 december, sat
sat1100:00−10s41183100 0.0 1019251
03:00−10s41182100 0.0 1019247
06:00−8ssw41290100 0.0 1018419
09:00−8ssw41292100 0.2 1018431
12:00−7sw41388100 0.0 1019463
15:00−11ssw249647 0.0 102082
18:00−13ssw229859 0.0 102122
21:00−15ssw229863 0.0 102219
12 december, sun
sun1200:00−15ssw219897 0.0 102316
03:00−14ssw119897 0.0 102317
06:00−15s119967 0.0 102410
09:00−14s1198100 0.0 102414
12:00−12s119798 0.0 102417
15:00−13sse1198100 0.0 102410
18:00−8se1196100 0.1 102353
21:00−7se1197100 0.6 102236
13 december, mon
mon1300:00−6ese0097100 0.9 102130
03:00−6se0097100 1.8 102026
06:00−7ne0098100 0.4 102010
09:00−7nnw0098100 0.8 102011
12:00−7nnw1197100 0.1 102021
15:00−8wnw119890 0.3 102114
18:00−9w009874 0.1 102110
21:00−10sw119881 0.2 102210